Location: North Runcton
(52.7000°N, 0.4333°E)
Time: 01:29:06
(UTC+00:00)

Cosmos 2237 Rocket - Pass Details

Date: 19 May 2025
Orbit: 834 x 849 km, 71.0° (Epoch: 18 June)

Event Time Altitude Azimuth Distance (km) Brightness Sun altitude
Rises 23:39:02 0° 327° (NNW) 3,399 6.4 -17.2°
Reaches altitude 10° 23:42:03 10° 342° (NNW) 2,464 5.8 -17.3°
Maximum altitude 23:46:25 22° 33° (NNE) 1,749 4.5 -17.3°
Drops below altitude 10° 23:50:47 10° 84° (E) 2,464 4.7 -17.3°
Sets 23:53:47 0° 99° (E) 3,399 5.3 -17.3°
